Regional Weather Roundup
Issued by NWS Grand Forks, ND

Home | Current Version | Previous Version | Text Only | Print | Product List | Glossary Off
Versions: 1 2 3 4 5 6 7 8 9 10 11 12 13 14 15 16 17 18 19 20 21 22 23 24 25 26 27 28 29 30 31 32 33 34 35 36 37 38 39 40 41 42 43 44 45 46 47 48 49 50

000
ASUS43 KFGF 232310
RWRFGF
PRAIRIE TO PINES  WEATHER ROUNDUP
NATIONAL WEATHER SERVICE EASTERN NORTH DAKOTA/GRAND FORKS ND
600 PM CDT SAT MAY 23 2015

 **SATELLITE DATA USED TO AUGMENT SKY COVER AT AUTOMATED STATIONS**
 *****  WEATHER ACROSS EASTERN NORTH DAKOTA  *****

CITY           SKY/WX    TMP DP  RH WIND       PRES   REMARKS
GRAND FORKS    SUNNY     76  43  30 S8        30.08F
GRAND FRKS AFB SUNNY     75  42  30 SW12      30.09F
GRAND FRKS NWS   N/A     73 N/A N/A S6          N/A
DEVILS LAKE    MOSUNNY   73  41  31 S9        30.08F
FARGO          MOSUNNY   71  45  39 S14G21    30.12F
WAHPETON ARPT  CLOUDY    68  43  40 S10G16    30.13F
$$

 ***** WEATHER ACROSS CENTRAL AND WESTERN NORTH DAKOTA  *****

CITY           SKY/WX    TMP DP  RH WIND       PRES   REMARKS
BISMARCK       CLOUDY    63  48  58 SE8       30.11S
MINOT          MOSUNNY   74  35  24 VRB5      30.07F
JAMESTOWN      MOSUNNY   67  47  48 S13       30.10F
MINOT AFB      MOSUNNY   77  40  26 S8        30.06S
GARRISON         N/A     71  42  35 SE15      30.08F
WILLISTON      PTSUNNY   72  36  26 SE13      30.08F
DICKINSON      CLOUDY    60  45  57 E12       30.08F
HETTINGER      CLOUDY    58  46  64 E13       30.09F
$$

 *****  OTHER AIRPORT OBSERVATIONS IN OUR AREA  *****

CITY           SKY/WX    TMP DP  RH WIND       PRES   REMARKS
WALHALLA         N/A     79  36  21 SE9       30.05F
GRAFTON AIRPOR FAIR      77  43  29 S15       30.07S
VALLEY CITY AR FAIR      70  45  40 SE9G17    30.11F
CANDO          FAIR      75  32  20 S8        30.08F
CAVALIER APRT  FAIR      81  30  16 SE5       30.06S
GWINNER        NOT AVBL
SHEYENNE NWR     N/A     72  46  39 S7        29.95S
ROLLA            N/A     75  32  20 SW7       30.08F
 ***** THE ABOVE OBSERVATIONS ARE NON NWS ARE NOT QUALITY
       CONTROLLED AND MAY MIS-REPORT RAIN FOR SNOW...
$$

  *****  WEATHER ACROSS NORTHERN MINNESOTA  *****

CITY           SKY/WX    TMP DP  RH WIND       PRES   REMARKS
FLAG ISLAND    SUNNY     72  36  26 SW12      30.06F
WARROAD        SUNNY     77  43  29 SW6       30.09S
ROSEAU         SUNNY     79  32  18 W6        30.08F
HALLOCK        SUNNY     79  28  15 S6        30.06F
THF RVR FALLS  MOSUNNY   75  39  27 SW12      30.11S
BAUDETTE       SUNNY     76  35  22 S9        30.09F
WASKISH        SUNNY     73  46  38 CALM      30.11F
CROOKSTON      SUNNY     75  43  31 SW15      30.11F
STEPHEN NDAWN    N/A     77  41  27 SW12        N/A
GREENBUSH NDAW   N/A     77  37  24 SW5         N/A
$$
  *****  WEATHER ACROSS CENTRAL AND WEST MINNESOTA  *****

CITY           SKY/WX    TMP DP  RH WIND       PRES   REMARKS
FOSSTON        FAIR      75  37  25 S8        30.13F
BEMIDJI        MOSUNNY   74  39  28 SW8       30.12F
PARK RAPIDS    PTSUNNY   71  42  35 S14       30.16S
ELBOW LAKE     CLOUDY    66  46  49 S10       30.15S
WADENA         PTSUNNY   66  45  45 S7        30.16F
DETROIT LAKES  PTSUNNY   68  43  40 S8        30.17S
MOORHEAD       MOSUNNY   72  43  35 S14       30.14S
FERGUS FALLS   PTSUNNY   68  45  42 S9        30.15S
MORRIS MN      CLOUDY    68  46  45 SE9       30.13F
STAPLES        PTSUNNY   66  39  37 S10       30.17F
$$
  *****  WEATHER ELSEWHERE ACROSS MINNESOTA  *****

CITY           SKY/WX    TMP DP  RH WIND       PRES   REMARKS
DULUTH         PTSUNNY   72  42  34 SW16G28   30.15R
INTRNTL FALLS  SUNNY     79  33  19 W8        30.08F
ELY            MOSUNNY   77  28  16 SW7       30.09F
CLOQUET        PTSUNNY   72  37  28 SW9       30.16R
WHEATON        PTSUNNY   66  46  48 SE9       30.14F
BRAINERD       PTSUNNY   68  41  37 S10       30.18F
HIBBING        MOSUNNY   74  34  23 SW9       30.12S
ALEXANDRIA     PTSUNNY   66  45  46 S9        30.18F
SAINT CLOUD    CLOUDY    67  45  45 E5        30.17F
MINNEAPOLIS    PTSUNNY   70  46  42 NE14      30.16F
$$

  *****  WEATHER ACROSS SOUTH DAKOTA  *****

CITY           SKY/WX    TMP DP  RH WIND       PRES   REMARKS
SIOUX FALLS    CLOUDY    66  52  60 S8        30.08F
BROOKINGS      CLOUDY    66  50  55 SE8       30.10F
WATERTOWN      CLOUDY    65  49  56 SE8       30.11F
HURON          CLOUDY    64  52  64 S9        30.08F
SISSETON         N/A     69  47  45 SE10      30.11F
ABERDEEN       CLOUDY    67  48  50 SE7       30.10F
MITCHELL       CLOUDY    64  54  69 SE12      30.08F
PIERRE         CLOUDY    60  53  77 SE13      30.04S
MOBRIDGE       CLOUDY    61  52  72 SE14      30.07F
RAPID CITY     CLOUDY    58  50  75 E14       30.02S
$$

  *****  SOME WEATHER IN NEARBY STATES *****

CITY           SKY/WX    TMP DP  RH WIND       PRES   REMARKS
GLASGOW MT     PTSUNNY   74  37  26 SE21      30.06S
GREAT FALLS MT CLOUDY    53  49  86 SW7       30.09F
CHEYENNE WY    LGT RAIN  47  44  90 SW16      29.96R FOG
SCOTTSBLUFF NE LGT RAIN  55  54  96 E15       29.94S
OMAHA NE       CLOUDY    65  58  78 NE3       30.09F
DES MOINES IA  CLOUDY    72  53  51 S15       30.12F
DAVENPORT IA   PTSUNNY   78  47  33 S9        30.17F
CHICAGO IL     MOSUNNY   79  38  22 S15       30.19F
EAU CLAIRE WI  LGT RAIN  74  41  30 SW5       30.16F
LA CROSSE WI   PTSUNNY   79  44  28 SE8       30.14F
$$

  *****  SOME NATIONAL WEATHER *****

CITY           SKY/WX    TMP DP  RH WIND       PRES   REMARKS
LA GUARDIA NY  MOSUNNY   63  39  41 S15       30.33S
RALEIGH NC     MOSUNNY   77  47  34 SE3       30.36F
ATLANTA GA     MOSUNNY   80  48  32 E12       30.29F
NEW ORLEANS LA PTSUNNY   82  69  64 SE15      30.12F
OKLAHOMA CITY  RAIN      70  68  93 SE15G24   29.91F FOG
ALBUQUERQUE NM MOSUNNY   70  19  14 SW13      29.90F
SALT LAKE CITY PTSUNNY   59  43  55 N6        29.92F
LOS ANGELES CA MOSUNNY   64  52  64 W14       30.05F
BOISE ID       PTSUNNY   77  47  34 NW17G23   29.83R
SEATTLE WA     CLOUDY    60  50  69 SW5       30.19F
$$

*** WEATHER ACROSS MANITOBA...SASKATCHEWAN AND ONTARIO ***
                ***ONTARIO***

CITY           SKY/WX    TMP DP  RH WIND       PRES   REMARKS
GERALDTON      PTSUNNY   72  39  30 W5        30.00S THUNDER
THUNDER BAY    PTSUNNY   81  34  18 W18G26    30.02S
SIOUX LOOKOUT  LGT RAIN  68  43  40 N6        30.06R
TORONTO        MOSUNNY   72  30  21 W17       30.25F
BIG TROUT LK   SUNNY     54  23  30 NW9G17    30.09S
PICKLE LAKE    PTSUNNY   66  45  45 NE15G22   30.00R
DRYDEN         SUNNY     77  34  20 SW21G29   30.03S
KENORA         MOSUNNY   77  43  29 MISG      30.07F
$$
                *** MANITOBA***

CITY           SKY/WX    TMP DP  RH WIND       PRES   REMARKS
BRANDON        MOSUNNY   81  32  17 W7        30.05F
DAUPHIN        SUNNY     79  41  25 NE20G26   30.04R
ISLAND LAKE    MOSUNNY   57  27  30 N6        30.12F
PILOT MOUND      N/A     79  34  19 E7          N/A
THE PAS        MOSUNNY   68  37  32 N7        30.14F
THOMPSON       MOSUNNY   61  21  21 NW5       30.14F
WINNIPEG       MOSUNNY   81  37  21 SW7       30.04F
LYNN LAKE      SUNNY     63  27  25 W6        30.15F
CHURCHILL      PTSUNNY   52  28  40 W15G21    29.98F
GILLAM         MOSUNNY   54  23  30 W9        30.12F
$$
                ***SASKATCHEWAN***

CITY           SKY/WX    TMP DP  RH WIND       PRES   REMARKS
ESTEVAN        PTSUNNY   75  37  25 E3        30.09F
KINDERSLEY     PTSUNNY   77  27  15 N9G17     30.09S
LLOYDMINSTER   PTSUNNY   75  30  19 E10       30.09F
PRINCE ALBERT  MOSUNNY   79  37  22 E6        30.05F
REGINA         PTSUNNY   77  32  19 N5        30.08F
YORKTON        MOSUNNY   81  34  18 NW9       30.05F
N. BATTLEFORD  SUNNY     81  27  13 SW7       30.09S
LA RONGE       MOSUNNY   70  30  23 NE9       30.15F
SASKATOON      PTSUNNY   81  28  15 VRB2      30.08F
SWIFT CURRENT  PTSUNNY   72  30  21 E14G25    30.10F
$$
NOTE: THESE ARE AUTOMATED STATIONS WITH LIMITED QUALITY CONTROL
      "FAIR" INDICATES FEW OR NO CLOUDS BELOW 12,000 FEET WITH NO
      SIGNIFICANT WEATHER AND/OR OBSTRUCTIONS TO VISIBILITY.
      SKY/WX - SKY CONDITION AND SIGNIFICANT WEATHER.
      TMP - AIR TEMPERATURE.    DP   - DEWPOINT TEMPERATURE.
      RH  - RELATIVE HUMIDITY.  PRES - PRESSURE.
      HX  - HEAT INDEX.         WCI  - WIND CHILL INDEX.
$


USA.gov is the U.S. government's official web portal to all federal, state and local government web resources and services.